When you browse on this site, cookies collect data to enhance your experience and personalize the content and advertising you see.
Visit our Privacy Policy to learn more. By continuing to use the site, you agree to this use of cookies and data.
  • In Czech Republic
  • List of Countries
  • For 7 days
  • Water Temperature
  • Weather Map
  • Weather Widgets
  • user-avatar
    Login

    Hourly Weather Lulea

    Today, 18 February, Tuesday

    Time Temperature Precipitation Wind Pressure Humidity
    00:00 -6°C° 0 mm 3 mps 728 mmHg 94%
    01:00 -6°C° 0 mm 2 mps 728 mmHg 95%
    02:00 -6°C° 0 mm 2 mps 728 mmHg 95%
    03:00 -6°C° 0 mm 2 mps 728 mmHg 94%
    04:00 -6°C° 0 mm 2 mps 728 mmHg 93%
    05:00 -7°C° 0 mm 2 mps 729 mmHg 93%
    06:00 -7°C° 0 mm 2 mps 729 mmHg 92%
    07:00 -6°C° 0 mm 2 mps 729 mmHg 93%
    08:00 -5°C° 0 mm 2 mps 730 mmHg 93%
    09:00 -4°C° 0 mm 2 mps 731 mmHg 92%
    10:00 -3°C° 0 mm 2 mps 731 mmHg 91%
    11:00 -2°C° 0 mm 2 mps 732 mmHg 92%
    12:00 -1°C° 0 mm 2 mps 732 mmHg 93%
    13:00 -1°C° 0 mm 2 mps 732 mmHg 94%
    14:00 -2°C° 0 mm 2 mps 732 mmHg 93%
    15:00 -3°C° 0 mm 2 mps 733 mmHg 91%
    16:00 -3°C° 0 mm 2 mps 733 mmHg 90%
    17:00 -4°C° 0.2 mm 3 mps 733 mmHg 91%
    18:00 -4°C° 0.2 mm 3 mps 733 mmHg 93%
    19:00 -4°C° 0.2 mm 3 mps 734 mmHg 94%
    20:00 -7°C° 0.2 mm 4 mps 734 mmHg 94%
    21:00 -8°C° 0.2 mm 4 mps 734 mmHg 93%
    22:00 -10°C° 0.2 mm 5 mps 735 mmHg 93%
    23:00 -10°C° 0 mm 4 mps 736 mmHg 93%

    Tomorrow, 19 February, Wednesday

    Time Temperature Precipitation Wind Pressure Humidity
    00:00 -10°C° 0 mm 4 mps 737 mmHg 93%
    01:00 -11°C° 0 mm 4 mps 737 mmHg 93%
    02:00 -9°C° 0.2 mm 4 mps 738 mmHg 94%
    03:00 -8°C° 0.2 mm 4 mps 738 mmHg 94%
    04:00 -6°C° 0.2 mm 5 mps 739 mmHg 95%
    05:00 -7°C° 0.2 mm 5 mps 740 mmHg 92%
    06:00 -7°C° 0.2 mm 5 mps 741 mmHg 90%
    07:00 -7°C° 0.2 mm 5 mps 742 mmHg 88%
    08:00 -8°C° 0 mm 5 mps 743 mmHg 87%
    09:00 -8°C° 0 mm 5 mps 744 mmHg 87%
    10:00 -8°C° 0 mm 5 mps 745 mmHg 86%
    11:00 -8°C° 0 mm 4 mps 746 mmHg 87%
    12:00 -8°C° 0 mm 4 mps 747 mmHg 87%
    13:00 -8°C° 0 mm 4 mps 748 mmHg 87%
    14:00 -9°C° 0 mm 4 mps 748 mmHg 88%
    15:00 -9°C° 0 mm 3 mps 749 mmHg 89%
    16:00 -10°C° 0 mm 3 mps 750 mmHg 91%
    17:00 -12°C° 0 mm 3 mps 751 mmHg 91%
    18:00 -14°C° 0 mm 3 mps 752 mmHg 91%
    19:00 -14°C° 0 mm 2 mps 752 mmHg 91%
    20:00 -14°C° 0 mm 2 mps 753 mmHg 90%
    21:00 -15°C° 0 mm 2 mps 754 mmHg 89%
    22:00 -16°C° 0 mm 2 mps 754 mmHg 88%
    23:00 -16°C° 0 mm 2 mps 755 mmHg 88%

    Day after tomorrow, 20 February, Thursday

    Time Temperature Precipitation Wind Pressure Humidity
    00:00 -15°C° 0 mm 1 mps 755 mmHg 88%
    01:00 -15°C° 0 mm 1 mps 756 mmHg 87%
    02:00 -15°C° 0 mm 1 mps 756 mmHg 87%
    03:00 -16°C° 0 mm 0 mps 756 mmHg 87%
    04:00 -16°C° 0 mm 0 mps 756 mmHg 87%
    05:00 -16°C° 0 mm 0 mps 757 mmHg 88%
    06:00 -15°C° 0 mm 1 mps 757 mmHg 88%
    07:00 -15°C° 0 mm 1 mps 757 mmHg 88%
    08:00 -14°C° 0 mm 1 mps 756 mmHg 90%
    09:00 -14°C° 0 mm 2 mps 756 mmHg 91%
    10:00 -12°C° 0 mm 2 mps 756 mmHg 93%
    11:00 -10°C° 0 mm 3 mps 755 mmHg 93%
    12:00 -10°C° 0 mm 4 mps 755 mmHg 92%
    13:00 -8°C° 0 mm 5 mps 754 mmHg 92%
    14:00 -8°C° 0 mm 6 mps 753 mmHg 89%
    15:00 -8°C° 0 mm 7 mps 752 mmHg 86%
    16:00 -7°C° 0 mm 8 mps 751 mmHg 84%
    17:00 -7°C° 0 mm 8 mps 751 mmHg 84%
    18:00 -7°C° 0 mm 8 mps 750 mmHg 84%
    19:00 -6°C° 0 mm 8 mps 749 mmHg 84%
    20:00 -6°C° 0 mm 8 mps 748 mmHg 84%
    21:00 -6°C° 0 mm 9 mps 747 mmHg 85%
    22:00 -5°C° 0 mm 9 mps 746 mmHg 85%
    23:00 -5°C° 0.1 mm 9 mps 745 mmHg 87%

    21 February, Friday

    Time Temperature Precipitation Wind Pressure Humidity
    00:00 -5°C° 0.1 mm 10 mps 745 mmHg 88%
    01:00 -4°C° 0.1 mm 10 mps 744 mmHg 90%
    02:00 -4°C° 0.3 mm 11 mps 742 mmHg 92%
    03:00 -4°C° 0.3 mm 11 mps 741 mmHg 94%
    04:00 -3°C° 0.3 mm 11 mps 740 mmHg 97%
    05:00 -3°C° 0.3 mm 11 mps 739 mmHg 97%
    06:00 -3°C° 0.3 mm 10 mps 738 mmHg 98%
    07:00 -1°C° 0.3 mm 9 mps 738 mmHg 98%
    14:00 -2°C° 0.3 mm 7 mps 735 mmHg 98%
    15:00 -2°C° 0.3 mm 6 mps 735 mmHg 97%
    16:00 -1°C° 0.3 mm 5 mps 735 mmHg 97%
    17:00 -1°C° 0 mm 5 mps 735 mmHg 93%
    18:00 -3°C° 0 mm 6 mps 736 mmHg 89%
    19:00 -4°C° 0 mm 6 mps 736 mmHg 85%
    20:00 -4°C° 0 mm 6 mps 735 mmHg 83%
    21:00 -3°C° 0 mm 6 mps 735 mmHg 82%
    22:00 -3°C° 0 mm 6 mps 735 mmHg 81%
    23:00 -3°C° 0 mm 7 mps 734 mmHg 82%

    22 February, Saturday

    Time Temperature Precipitation Wind Pressure Humidity
    00:00 -2°C° 0 mm 7 mps 733 mmHg 83%
    01:00 -2°C° 0 mm 8 mps 732 mmHg 84%
    02:00 -2°C° 0 mm 8 mps 731 mmHg 85%
    03:00 -1°C° 0 mm 8 mps 731 mmHg 86%
    04:00 -1°C° 0 mm 8 mps 730 mmHg 87%
    05:00 -1°C° 0.2 mm 8 mps 729 mmHg 90%
    06:00 -1°C° 0.2 mm 7 mps 728 mmHg 94%
    07:00 -1°C° 0.2 mm 6 mps 727 mmHg 98%
    08:00 -1°C° 0 mm 6 mps 727 mmHg 94%
    09:00 -1°C° 0 mm 6 mps 727 mmHg 90%
    10:00 -1°C° 0 mm 6 mps 726 mmHg 85%
    11:00 -1°C° 0 mm 6 mps 727 mmHg 85%
    12:00 -1°C° 0 mm 6 mps 727 mmHg 85%
    13:00 -1°C° 0 mm 6 mps 727 mmHg 85%
    14:00 -1°C° 0 mm 6 mps 728 mmHg 83%
    15:00 -2°C° 0 mm 6 mps 728 mmHg 81%
    16:00 -2°C° 0 mm 6 mps 728 mmHg 79%
    17:00 -1°C° 0 mm 5 mps 728 mmHg 80%
    18:00 -2°C° 0 mm 5 mps 728 mmHg 81%
    19:00 -4°C° 0 mm 5 mps 728 mmHg 82%
    20:00 -4°C° 0 mm 5 mps 728 mmHg 82%
    21:00 -4°C° 0 mm 5 mps 728 mmHg 82%
    22:00 -5°C° 0 mm 5 mps 728 mmHg 83%
    23:00 -5°C° 0 mm 5 mps 728 mmHg 83%

    23 February, Sunday

    Time Temperature Precipitation Wind Pressure Humidity
    00:00 -5°C° 0 mm 5 mps 727 mmHg 83%
    01:00 -5°C° 0 mm 5 mps 727 mmHg 83%
    02:00 -6°C° 0 mm 5 mps 727 mmHg 85%
    03:00 -6°C° 0 mm 5 mps 726 mmHg 87%
    04:00 -7°C° 0 mm 4 mps 726 mmHg 88%
    05:00 -7°C° 0 mm 4 mps 726 mmHg 90%
    06:00 -7°C° 0 mm 3 mps 726 mmHg 91%
    07:00 -7°C° 0 mm 3 mps 726 mmHg 92%
    08:00 -6°C° 0 mm 3 mps 727 mmHg 92%
    09:00 -5°C° 0 mm 2 mps 728 mmHg 92%
    10:00 -4°C° 0 mm 2 mps 728 mmHg 92%
    11:00 -5°C° 0 mm 3 mps 729 mmHg 91%
    12:00 -5°C° 0 mm 4 mps 730 mmHg 90%
    13:00 -5°C° 0 mm 4 mps 731 mmHg 89%
    14:00 -6°C° 0 mm 5 mps 732 mmHg 88%
    15:00 -6°C° 0 mm 5 mps 733 mmHg 86%
    16:00 -6°C° 0 mm 5 mps 734 mmHg 85%
    17:00 -7°C° 0 mm 5 mps 735 mmHg 85%
    18:00 -8°C° 0 mm 5 mps 737 mmHg 85%
    19:00 -10°C° 0 mm 5 mps 738 mmHg 84%
    20:00 -11°C° 0 mm 5 mps 739 mmHg 85%
    21:00 -12°C° 0 mm 5 mps 740 mmHg 86%
    22:00 -12°C° 0 mm 4 mps 741 mmHg 86%
    23:00 -14°C° 0 mm 4 mps 742 mmHg 87%
    Show more